This demonstration page uses our WeatherBlox Daily Observations layout. Learn more.

Left ArrowRight Arrow

44.31136, -96.79839

Hourly Observations for August 1, 2022

Temp ( °F °C ) Dew Point ( °F °C ) Humidity (%) Winds ( mph kmh ) Pressure ( in mb ) Visibility ( mi km ) Precip ( " mm )
12:56 am 00:56 Clear 61 16.1 60 15.6 97 97 NW 6 9 29.98 1015 10 16 0.00 0.00
1:56 am 01:56 Clear 61 16.1 60 15.6 97 97 WNW 5 7 29.98 1015 10 16 0.00 0.00
2:56 am 02:56 Clear 61 16.1 61 16.1 100 100 N 3 6 29.98 1015 10 16 0.00 0.00
3:56 am 03:56 Clear 60 15.6 60 15.6 100 100 NNE 6 9 29.98 1015 10 16 0.00 0.00
4:56 am 04:56 Clear 59 15 59 15 100 100 NNE 3 6 29.97 1015 10 16 0.00 0.00
5:56 am 05:56 Clear 56 13.3 56 13.3 100 100 SW 6 9 29.99 1016 10 16 0.00 0.00
6:19 am 06:19 Partly Cloudy with Mist and Fog 55 13 55 13 100 100 SSW 6 9 29.97 1015 2 3 0.00 0.00
6:33 am 06:33 Partly Cloudy with Mist and Fog 55 13 55 13 100 100 SW 3 6 29.97 1015 4 6 0.00 0.00
6:56 am 06:56 Sunny with Mist and Fog 57 13.9 57 13.9 100 100 NNE 5 7 29.99 1016 2 3 0.00 0.00
7:12 am 07:12 Sunny 59 15 57 14 94 94 Calm 29.96 1015 8 13 0.00 0.00
7:56 am 07:56 Sunny 65 18.3 59 15 81 81 Calm 30.00 1016 10 16 0.00 0.00
8:56 am 08:56 Sunny 69 20.6 56 13.3 63 63 NE 5 7 30.01 1016 10 16 0.00 0.00
9:56 am 09:56 Sunny 71 21.7 57 13.9 61 61 ENE 5 7 30.02 1017 10 16 0.00 0.00
10:56 am 10:56 Sunny 74 23.3 57 13.9 56 56 VRB 3 6 30.02 1017 10 16 0.00 0.00
11:56 am 11:56 Sunny 76 24.4 58 14.4 54 54 Calm 30.02 1017 10 16 0.00 0.00
12:56 pm 12:56 Sunny 79 26.1 59 15 50 50 VRB 3 6 30.01 1016 10 16 0.00 0.00
1:56 pm 13:56 Sunny 81 27.2 60 15.6 49 49 VRB 5 7 29.99 1016 10 16 0.00 0.00
2:56 pm 14:56 Sunny 82 27.8 60 15.6 47 47 SSE 8 13 29.96 1015 10 16 0.00 0.00
3:56 pm 15:56 Sunny 85 29.4 60 15.6 43 43 VRB 6 9 29.94 1014 10 16 0.00 0.00
4:56 pm 16:56 Sunny 86 30 61 16.1 43 43 ESE 10 17 29.93 1014 10 16 0.00 0.00
5:56 pm 17:56 Sunny 86 30 62 16.7 45 45 ESE 7 11 29.92 1013 10 16 0.00 0.00
6:56 pm 18:56 Sunny 85 29.4 61 16.1 45 45 S 13 20 29.89 1012 10 16 0.00 0.00
7:56 pm 19:56 Sunny 81 27.2 63 17.2 54 54 SE 9 15 29.89 1012 10 16 0.00 0.00
8:56 pm 20:56 Clear 75 23.9 64 17.8 69 69 SE 9 15 29.89 1012 10 16 0.00 0.00
9:56 pm 21:56 Clear 73 22.8 64 17.8 74 74 ESE 8 13 29.90 1012 10 16 0.00 0.00
10:56 pm 22:56 Clear 71 21.7 64 17.8 79 79 SE 12 19 29.87 1012 10 16 0.00 0.00
11:56 pm 23:56 Clear 68 20 65 18.3 90 90 SE 12 19 29.86 1011 10 16 0.00 0.00

Powered by AerisWeather